Tracking 19832 objects as of 25-Aug-2019
HD Live streaming from Space Station
objects crossing your sky now

UME 2 (ISS-B)

Track UME 2 (ISS-B) now!
10-day predictions
UME 2 (ISS-B) is classified as:


NORAD ID: 10674
Int'l Code: 1978-018A
Perigee: 978.3 km
Apogee: 1,227.7 km
Inclination: 69.4 °
Period: 107.2 minutes
Semi major axis: 7473 km
RCS: 1.4219 m2 (large)
Launch date: February 16, 1978
Source: Japan (JPN)
Launch site: TANEGASHIMA SPACE CENTER (TNSTA)
aabbcc
Your satellite tracking list
Your tracking list is empty




NASA's NSSDC Master Catalog

Two Line Element Set (TLE):
1 10674U 78018A   19236.45054681 -.00000030  00000-0  34335-4 0  9992
2 10674  69.3596 229.1540 0166840 289.1101 183.1766 13.43612685 36615
Source of the keplerian elements: AFSPC